Torna al catalogo

THOR ABLESTAR DEB

AttivoLEO
NORAD 243·DEBRIS·🇺🇸 United States

Lanciato Jun 29, 1961 da Cape Canaveral Space Force Station

Loading…

Prossimi Passaggi (prossime 24 ore)

TLE

AggiornatoSource: Space-Track

Epoca: Sep 6, 2026, 03:16 UTC

1 00243U 61015BY  26249.13641492  .00000453  00000-0  34922-3 0  9990
2 00243  66.4626 159.7169 0021646  23.6843 336.5230 14.02044420294642

Traccia THOR ABLESTAR DEB in tempo reale con AllMySat

Download on the App Store